Location: Del Amo
(33.8464°N, 118.2104°W)
Time: 22:02:04
(UTC+00:00)

Vanguard 2 Rocket - Visible Passes

Search period start: 11 September 2024 00:00
Search period end: 21 September 2024 00:00
Orbit: 553 x 3301 km, 32.9° (Epoch: 11 September)

Date Brightness Start Highest point End Pass type
(mag) Time Alt. Az. Time Alt. Az. Time Alt. Az.
11 Sep 9.6 08:51:30 36° ESE 08:51:30 36° ESE 09:01:59 10° ENE visible
11 Sep 8.8 10:57:00 51° WSW 11:02:04 80° SSE 11:21:53 10° E visible
11 Sep 9.7 13:03:32 10° W 13:20:15 86° S 13:40:42 10° ESE visible
12 Sep 10.3 07:51:51 16° E 07:51:51 16° E 07:54:48 10° E visible
12 Sep 8.7 09:57:20 70° SSE 09:57:20 70° SSE 10:15:15 10° E visible
12 Sep 9.4 12:02:49 23° W 12:14:11 87° S 12:34:45 10° E visible
13 Sep 9.4 08:57:40 41° E 08:57:40 41° E 09:08:30 10° ENE visible
13 Sep 8.8 11:03:09 49° WSW 11:08:33 85° S 11:28:18 10° E visible
13 Sep 9.7 13:10:14 10° W 13:26:40 82° SSW 13:47:05 10° ESE visible
14 Sep 10.2 07:58:01 18° E 07:58:01 18° E 08:01:42 10° E visible
14 Sep 8.6 10:03:30 78° SSE 10:03:31 78° SSE 10:21:37 10° E visible
14 Sep 9.3 12:08:59 21° W 12:20:42 86° S 12:41:10 10° E visible
15 Sep 9.3 09:03:51 45° E 09:03:51 45° E 09:14:53 10° E visible
15 Sep 8.9 11:09:21 46° W 11:15:05 87° S 11:34:43 10° E visible
16 Sep 10.1 08:04:14 20° E 08:04:14 20° E 08:08:16 10° E visible
16 Sep 8.5 10:09:43 83° SSW 10:10:00 84° S 10:27:57 10° E visible
16 Sep 9.3 12:15:13 19° W 12:27:07 82° SSW 12:47:27 10° ESE visible
17 Sep 9.2 09:10:07 48° E 09:10:07 48° E 09:21:12 10° E visible
17 Sep 8.9 11:15:36 43° W 11:21:36 86° S 11:41:03 10° E visible
18 Sep 10.0 08:10:32 21° E 08:10:32 21° E 08:14:40 10° E visible
18 Sep 8.4 10:16:02 84° SW 10:16:31 87° S 10:34:17 10° E visible
18 Sep 9.3 12:21:32 17° W 12:33:26 75° SSW 12:53:31 10° ESE visible
19 Sep 9.1 09:16:29 49° E 09:16:29 49° E 09:27:30 10° E visible
19 Sep 8.9 11:21:59 41° W 11:28:02 82° S 11:47:14 10° ESE visible
20 Sep 10.0 08:16:58 21° E 08:16:58 21° E 08:20:59 10° E visible
20 Sep 8.4 10:22:29 83° WSW 10:23:03 86° S 10:40:33 10° E visible
20 Sep 9.3 12:27:59 16° W 12:39:40 66° SSW 12:59:18 10° SE visible
